Change the Weather History Date:

Thursday, February 28, 2013

  Actual Average Record
Temperature  
Mean Temperature 33 °F -  
Max Temperature 35 °F 31 °F 44 °F (1998)
Min Temperature 31 °F 14 °F - (1997)
Degree Days  
Heating Degree Days 32    
Moisture  
Dew Point 33 °F    
Average Humidity 99    
Maximum Humidity 100    
Minimum Humidity 93    
Precipitation  
Precipitation 0.12 in - - ()
Sea Level Pressure  
Sea Level Pressure 29.60 in    
Wind  
Wind Speed 5 mph (WSW)    
Max Wind Speed 12 mph    
Max Gust Speed 17 mph    
Visibility 7 miles    
Events Rain , Snow    
Averages and records for this station are not official NWS values.
T = Trace of Precipitation, MM = Missing Value Source: NWS Daily Summary

Daily Weather History Graph

Daily Weather History Graph

Search for Another Location

Airport or City:

Trip Planner

Search our weather history database for the weather conditions in past years. The results will help you decide how hot, cold, wet, or windy it might be!

Date:

Astronomy

Feb. 28, 2013 Rise Set
Actual Time 6:41 AM EST 5:50 PM EST
Civil Twilight 6:12 AM EST 6:19 PM EST
Nautical Twilight 5:38 AM EST 6:52 PM EST
Astronomical Twilight 5:05 AM EST 7:26 PM EST
Moon 9:24 PM EST (2/28) 7:41 AM EST (2/28)
Length of Visible Light 12h 07m
Length of Day
11h 09m
Waning Gibbous, 91% of the Moon is Illuminated
Feb 28
Waning Gibbous
Mar 4
Last Quarter
Mar 11
New
Mar 19
First Quarter
Mar 27
Full

Hourly Weather History & Observations

Time (EST) Temp. Windchill Dew Point Humidity Pressure Visibility Wind Dir Wind Speed Gust Speed Precip Events Conditions
12:10 AM 32.0 °F 26.4 °F 32.0 °F 100% 29.54 in 7.0 mi SE 5.8 mph - N/A Snow Light Snow
12:17 AM 32.0 °F 26.4 °F 32.0 °F 100% 29.54 in 9.0 mi SE 5.8 mph - N/A Snow Light Snow
12:50 AM 32.0 °F 25.6 °F 32.0 °F 100% 29.53 in 10.0 mi SSE 6.9 mph - N/A Snow Light Snow
12:54 AM 32.0 °F 25.6 °F 32.0 °F 100% 29.53 in 10.0 mi SSE 6.9 mph - N/A Snow Light Snow
12:55 AM 32.7 °F 26.4 °F 32.7 °F 100% 29.53 in 10.0 mi SSE 6.9 mph - 0.03 in Snow Light Snow
12:56 AM 32.0 °F 25.6 °F 32.0 °F 100% 29.53 in 10.0 mi SSE 6.9 mph - N/A Snow Light Snow
1:05 AM 32.0 °F 27.5 °F 32.0 °F 100% 29.53 in 10.0 mi South 4.6 mph - N/A   Overcast
1:09 AM 32.0 °F 27.5 °F 32.0 °F 100% 29.53 in 10.0 mi South 4.6 mph - N/A   Overcast
1:10 AM 32.0 °F 26.4 °F 32.0 °F 100% 29.53 in 10.0 mi South 5.8 mph - N/A   Overcast
1:13 AM 32.0 °F 26.4 °F 32.0 °F 100% 29.53 in 10.0 mi South 5.8 mph - N/A   Overcast
1:14 AM 32.0 °F 26.4 °F 32.0 °F 100% 29.53 in 10.0 mi South 5.8 mph - N/A   Overcast
1:17 AM 32.0 °F 26.4 °F 32.0 °F 100% 29.53 in 9.0 mi South 5.8 mph - N/A Snow Light Snow
1:20 AM 32.0 °F 27.5 °F 32.0 °F 100% 29.53 in 8.0 mi SSE 4.6 mph - N/A Snow Light Snow
1:40 AM 32.0 °F 26.4 °F 32.0 °F 100% 29.53 in 9.0 mi South 5.8 mph - N/A Snow Light Snow
1:41 AM 32.0 °F 26.4 °F 32.0 °F 100% 29.53 in 9.0 mi South 5.8 mph - N/A Snow Light Snow
1:44 AM 32.0 °F 27.5 °F 32.0 °F 100% 29.53 in 10.0 mi South 4.6 mph - N/A Snow Light Snow
1:53 AM 32.0 °F 27.5 °F 32.0 °F 100% 29.53 in 10.0 mi South 4.6 mph - N/A Snow Light Snow
1:55 AM 32.5 °F 28.1 °F 32.5 °F 100% 29.53 in 10.0 mi South 4.6 mph - 0.01 in Snow Light Snow
2:00 AM 32.0 °F 27.5 °F 32.0 °F 100% 29.53 in 10.0 mi South 4.6 mph - N/A Snow Light Snow
2:12 AM 32.0 °F - 32.0 °F 100% 29.52 in 9.0 mi Calm Calm - N/A Snow Light Snow
2:35 AM 32.0 °F 26.4 °F 32.0 °F 100% 29.52 in 6.0 mi SSW 5.8 mph - N/A Snow Light Snow
2:55 AM 32.4 °F 26.9 °F 32.4 °F 100% 29.52 in 4.0 mi South 5.8 mph - 0.01 in Snow Light Snow
3:04 AM 32.0 °F 25.6 °F 32.0 °F 100% 29.51 in 2.5 mi SSW 6.9 mph - N/A Snow Light Snow
3:09 AM 32.0 °F 24.8 °F 32.0 °F 100% 29.51 in 3.0 mi SSW 8.1 mph - N/A Snow Light Snow
3:13 AM 32.0 °F 24.2 °F 32.0 °F 100% 29.51 in 3.0 mi SSW 9.2 mph - N/A Snow Light Snow
3:18 AM 32.0 °F 24.8 °F 32.0 °F 100% 29.51 in 3.0 mi SSW 8.1 mph - N/A Snow Light Snow
3:55 AM 32.5 °F 24.8 °F 32.5 °F 100% 29.51 in 4.0 mi SW 9.2 mph - 0.01 in Snow Light Snow
4:17 AM 32.0 °F 24.2 °F 32.0 °F 100% 29.52 in 3.0 mi SW 9.2 mph - N/A Snow Light Snow
4:22 AM 32.0 °F 24.8 °F 32.0 °F 100% 29.52 in 3.0 mi SW 8.1 mph - N/A Snow Light Snow
4:39 AM 32.0 °F 24.8 °F 32.0 °F 100% 29.52 in 3.0 mi SW 8.1 mph - N/A Snow Light Snow
4:54 AM 32.0 °F 25.6 °F 32.0 °F 100% 29.52 in 4.0 mi SW 6.9 mph - N/A Snow Light Snow
4:55 AM 32.4 °F 26.0 °F 32.4 °F 100% 29.52 in 4.0 mi SW 6.9 mph - 0.00 in Snow Light Snow
5:29 AM 32.0 °F 24.2 °F 32.0 °F 100% 29.53 in 3.0 mi WSW 9.2 mph - N/A Snow Light Snow
5:55 AM 32.4 °F 26.0 °F 32.4 °F 100% 29.54 in 5.0 mi WSW 6.9 mph - 0.00 in Snow Light Snow
6:55 AM 32.4 °F 25.3 °F 32.4 °F 100% 29.55 in 3.0 mi WSW 8.1 mph - 0.01 in Snow Light Snow
6:58 AM 32.0 °F 25.6 °F 32.0 °F 100% 29.55 in 2.5 mi WSW 6.9 mph - N/A Snow Light Snow
7:03 AM 32.0 °F 24.8 °F 32.0 °F 100% 29.55 in 2.0 mi WSW 8.1 mph - N/A Snow Light Snow
7:07 AM 32.0 °F 25.6 °F 32.0 °F 100% 29.55 in 2.0 mi WSW 6.9 mph - N/A Snow Light Snow
7:11 AM 32.0 °F 24.8 °F 32.0 °F 100% 29.55 in 1.8 mi WSW 8.1 mph - N/A Snow Light Snow
7:28 AM 32.0 °F 24.8 °F 32.0 °F 100% 29.55 in 1.2 mi WSW 8.1 mph - N/A Snow Light Snow
7:30 AM 32.0 °F 25.6 °F 32.0 °F 100% 29.55 in 1.5 mi WSW 6.9 mph - N/A Snow Light Snow
7:48 AM 32.0 °F 25.6 °F 32.0 °F 100% 29.56 in 2.0 mi WSW 6.9 mph - N/A Snow Light Snow
7:55 AM 32.4 °F 25.3 °F 32.4 °F 100% 29.56 in 2.0 mi WSW 8.1 mph - 0.00 in Snow Light Snow
8:10 AM 32.0 °F 25.6 °F 32.0 °F 100% 29.56 in 2.5 mi WSW 6.9 mph - N/A Snow Light Snow
8:13 AM 32.0 °F 27.5 °F 32.0 °F 100% 29.56 in 3.0 mi WSW 4.6 mph - N/A Snow Light Snow
8:36 AM 32.0 °F 24.8 °F 32.0 °F 100% 29.57 in 6.0 mi WSW 8.1 mph - N/A Snow Light Snow
8:53 AM 33.8 °F 27.7 °F 33.8 °F 100% 29.57 in 9.0 mi WSW 6.9 mph - N/A Snow Light Snow
8:55 AM 33.1 °F 26.1 °F 33.1 °F 100% 29.57 in 9.0 mi WSW 8.1 mph - 0.02 in Snow Light Snow
9:10 AM 33.8 °F 25.3 °F 33.8 °F 100% 29.57 in 10.0 mi SW 11.5 mph - N/A Snow Light Snow
9:20 AM 33.8 °F 27.7 °F 33.8 °F 100% 29.57 in 10.0 mi WSW 6.9 mph - N/A Snow Light Snow
9:24 AM 33.8 °F 27.7 °F 33.8 °F 100% 29.57 in 10.0 mi WSW 6.9 mph - N/A   Overcast
9:28 AM 33.8 °F 27.0 °F 33.8 °F 100% 29.57 in 9.0 mi WSW 8.1 mph - N/A Snow Light Snow
9:45 AM 33.8 °F 25.8 °F 33.8 °F 100% 29.57 in 10.0 mi SW 10.4 mph - N/A   Overcast
9:55 AM 33.4 °F 26.6 °F 33.3 °F 99% 29.57 in 10.0 mi SW 8.1 mph 17.3 mph 0.01 in   Overcast
10:32 AM 33.8 °F 27.0 °F 33.8 °F 100% 29.58 in 10.0 mi WSW 8.1 mph - N/A Rain Light Rain
10:44 AM 33.8 °F 27.0 °F 33.8 °F 100% 29.58 in 4.0 mi WSW 8.1 mph - N/A Snow Light Snow
10:48 AM 33.8 °F 27.7 °F 33.8 °F 100% 29.58 in 2.5 mi WSW 6.9 mph - N/A Snow Light Snow
10:51 AM 33.8 °F 28.6 °F 33.8 °F 100% 29.58 in 2.0 mi WSW 5.8 mph - N/A Snow Light Snow
10:53 AM 33.8 °F 28.6 °F 33.8 °F 100% 29.58 in 2.5 mi WSW 5.8 mph - N/A Snow Light Snow
10:55 AM 33.6 °F 29.4 °F 33.3 °F 99% 29.58 in 2.5 mi WSW 4.6 mph - 0.01 in Snow Light Snow
10:57 AM 33.8 °F 27.7 °F 33.8 °F 100% 29.58 in 3.0 mi WSW 6.9 mph - N/A Snow Light Snow
11:03 AM 33.8 °F 29.6 °F 33.8 °F 100% 29.58 in 7.0 mi WSW 4.6 mph - N/A Snow Light Snow
11:10 AM 33.8 °F 27.7 °F 33.8 °F 100% 29.58 in 10.0 mi WSW 6.9 mph - N/A Snow Light Snow
11:14 AM 33.8 °F 27.0 °F 33.8 °F 100% 29.58 in 10.0 mi WSW 8.1 mph - N/A   Overcast
11:16 AM 33.8 °F 27.0 °F 33.8 °F 100% 29.58 in 10.0 mi WSW 8.1 mph - N/A Rain Light Rain
11:18 AM 33.8 °F 27.0 °F 33.8 °F 100% 29.58 in 10.0 mi WSW 8.1 mph - N/A Rain Light Rain
11:37 AM 33.8 °F 27.7 °F 33.8 °F 100% 29.58 in 7.0 mi WSW 6.9 mph - N/A Snow Light Snow
11:41 AM 33.8 °F 29.6 °F 33.8 °F 100% 29.58 in 9.0 mi WSW 4.6 mph - N/A Snow Light Snow
11:45 AM 33.8 °F 28.6 °F 33.8 °F 100% 29.58 in 10.0 mi SW 5.8 mph - N/A Snow Light Snow
11:48 AM 35.6 °F 28.6 °F 35.6 °F 100% 29.58 in 10.0 mi SW 9.2 mph - N/A   Overcast
11:55 AM 35.1 °F 28.6 °F 34.5 °F 98% 29.58 in 10.0 mi SW 8.1 mph - 0.00 in   Overcast
12:02 PM 35.6 °F 28.6 °F 33.8 °F 93% 29.58 in 10.0 mi SW 9.2 mph - N/A Snow Light Snow
12:09 PM 35.6 °F 28.6 °F 33.8 °F 93% 29.58 in 10.0 mi WSW 9.2 mph - N/A Snow Light Snow
12:11 PM 35.6 °F 29.9 °F 33.8 °F 93% 29.58 in 10.0 mi SW 6.9 mph - N/A   Overcast
12:16 PM 35.6 °F 27.5 °F 33.8 °F 93% 29.58 in 10.0 mi SW 11.5 mph - N/A Snow Light Snow
12:22 PM 35.6 °F 29.2 °F 33.8 °F 93% 29.58 in 9.0 mi WSW 8.1 mph - N/A Snow Light Snow
12:30 PM 35.6 °F 29.9 °F 33.8 °F 93% 29.58 in 10.0 mi WSW 6.9 mph - N/A   Overcast
12:33 PM 35.6 °F 29.2 °F 33.8 °F 93% 29.58 in 10.0 mi West 8.1 mph - N/A   Overcast
12:47 PM 35.6 °F 28.6 °F 33.8 °F 93% 29.58 in 10.0 mi WSW 9.2 mph - N/A Snow Light Snow
12:55 PM 34.2 °F 27.5 °F 33.4 °F 97% 29.58 in 5.0 mi WSW 8.1 mph - 0.00 in Snow Light Snow
1:01 PM 33.8 °F 27.7 °F 33.8 °F 100% 29.58 in 5.0 mi WSW 6.9 mph - N/A Snow Light Snow
1:04 PM 33.8 °F 26.4 °F 33.8 °F 100% 29.58 in 6.0 mi WSW 9.2 mph - N/A Snow Light Snow
1:11 PM 35.6 °F 30.7 °F 33.8 °F 93% 29.58 in 10.0 mi WSW 5.8 mph - N/A Snow Light Snow
1:12 PM 35.6 °F 31.7 °F 33.8 °F 93% 29.58 in 10.0 mi Variable 4.6 mph - N/A   Overcast
1:16 PM 35.6 °F 31.7 °F 33.8 °F 93% 29.58 in 10.0 mi West 4.6 mph - N/A   Overcast
1:28 PM 33.8 °F 27.7 °F 33.8 °F 100% 29.58 in 10.0 mi West 6.9 mph - N/A   Overcast
1:32 PM 33.8 °F 28.6 °F 33.8 °F 100% 29.58 in 10.0 mi West 5.8 mph - N/A Rain Light Rain
1:35 PM 33.8 °F 29.6 °F 33.8 °F 100% 29.58 in 10.0 mi West 4.6 mph - N/A Rain Light Rain
1:44 PM 33.8 °F 28.6 °F 33.8 °F 100% 29.58 in 10.0 mi West 5.8 mph - N/A Rain Light Rain
1:55 PM 34.2 °F 28.2 °F 34.0 °F 99% 29.58 in 9.0 mi WSW 6.9 mph - 0.00 in   Light Drizzle
1:57 PM 33.8 °F 27.0 °F 33.8 °F 100% 29.58 in 8.0 mi WSW 8.1 mph - N/A   Overcast
2:11 PM 33.8 °F 28.6 °F 33.8 °F 100% 29.59 in 10.0 mi WSW 5.8 mph - N/A   Overcast
2:12 PM 33.8 °F 28.6 °F 33.8 °F 100% 29.59 in 10.0 mi WSW 5.8 mph - N/A   Overcast
2:25 PM 33.8 °F 29.6 °F 33.8 °F 100% 29.59 in 10.0 mi WSW 4.6 mph - N/A Rain Light Rain
2:35 PM 33.8 °F 28.6 °F 33.8 °F 100% 29.59 in 9.0 mi WSW 5.8 mph - N/A   Overcast
2:38 PM 33.8 °F 28.6 °F 33.8 °F 100% 29.59 in 8.0 mi WSW 5.8 mph - N/A Snow Light Snow
2:51 PM 33.8 °F 28.6 °F 33.8 °F 100% 29.59 in 7.0 mi WSW 5.8 mph - N/A Snow Light Snow
2:55 PM 33.8 °F 29.6 °F 33.6 °F 99% 29.59 in 8.0 mi WSW 4.6 mph - 0.01 in Snow Light Snow
3:06 PM 33.8 °F 30.8 °F 33.8 °F 100% 29.60 in 10.0 mi SW 3.5 mph - N/A   Overcast
3:09 PM 33.8 °F 30.8 °F 33.8 °F 100% 29.60 in 10.0 mi WSW 3.5 mph - N/A   Overcast
3:11 PM 33.8 °F - 33.8 °F 100% 29.60 in 10.0 mi Calm Calm - N/A   Overcast
3:12 PM 33.8 °F - 33.8 °F 100% 29.60 in 10.0 mi Calm Calm - N/A   Overcast
3:16 PM 33.8 °F - 33.8 °F 100% 29.60 in 10.0 mi Calm Calm - N/A Rain Light Rain
3:20 PM 33.8 °F 30.8 °F 33.8 °F 100% 29.60 in 10.0 mi WSW 3.5 mph - N/A Rain Light Rain
3:31 PM 33.8 °F 30.8 °F 33.8 °F 100% 29.60 in 10.0 mi West 3.5 mph - N/A   Overcast
3:36 PM 33.8 °F 30.8 °F 33.8 °F 100% 29.60 in 10.0 mi West 3.5 mph - N/A   Overcast
3:52 PM 33.8 °F 30.8 °F 33.8 °F 100% 29.60 in 10.0 mi West 3.5 mph - N/A Rain Light Rain
3:53 PM 33.8 °F 30.8 °F 33.8 °F 100% 29.60 in 10.0 mi West 3.5 mph - N/A Rain Light Rain
3:55 PM 34.0 °F - 33.6 °F 99% 29.60 in 10.0 mi Calm Calm - 0.00 in Rain Light Rain
4:00 PM 33.8 °F - 33.8 °F 100% 29.61 in 10.0 mi Calm Calm - N/A Rain Light Rain
4:08 PM 33.8 °F - 33.8 °F 100% 29.61 in 10.0 mi Calm Calm - N/A   Overcast
4:15 PM 33.8 °F 30.8 °F 33.8 °F 100% 29.61 in 10.0 mi WNW 3.5 mph - N/A   Overcast
4:18 PM 33.8 °F - 33.8 °F 100% 29.61 in 10.0 mi Calm Calm - N/A   Overcast
4:23 PM 33.8 °F 30.8 °F 33.8 °F 100% 29.61 in 10.0 mi NW 3.5 mph - N/A   Overcast
4:28 PM 33.8 °F - 33.8 °F 100% 29.61 in 10.0 mi Calm Calm - N/A   Overcast
4:48 PM 33.8 °F - 33.8 °F 100% 29.62 in 10.0 mi Calm Calm - N/A   Overcast
4:55 PM 33.4 °F - 33.3 °F 99% 29.62 in 10.0 mi Calm Calm - 0.00 in   Overcast
5:01 PM 33.8 °F - 33.8 °F 100% 29.62 in 10.0 mi Calm Calm - N/A   Mostly Cloudy
5:09 PM 33.8 °F - 33.8 °F 100% 29.62 in 10.0 mi Calm Calm - N/A   Overcast
5:12 PM 33.8 °F - 33.8 °F 100% 29.62 in 10.0 mi Calm Calm - N/A   Overcast
5:13 PM 33.8 °F - 33.8 °F 100% 29.62 in 10.0 mi Calm Calm - N/A   Overcast
5:22 PM 33.8 °F - 33.8 °F 100% 29.62 in 10.0 mi Calm Calm - N/A Rain Light Rain
5:27 PM 33.8 °F - 33.8 °F 100% 29.62 in 9.0 mi Calm Calm - N/A Rain Light Rain
5:37 PM 33.8 °F - 33.8 °F 100% 29.63 in 10.0 mi Calm Calm - N/A   Overcast
5:45 PM 33.8 °F - 33.8 °F 100% 29.63 in 10.0 mi Calm Calm - N/A   Overcast
5:55 PM 33.3 °F - 33.1 °F 99% 29.63 in 10.0 mi Calm Calm - 0.00 in   Overcast
5:57 PM 33.8 °F - 33.8 °F 100% 29.63 in 10.0 mi Calm Calm - N/A   Light Drizzle
6:06 PM 33.8 °F - 32.0 °F 93% 29.63 in 10.0 mi Calm Calm - N/A   Light Drizzle
6:08 PM 33.8 °F - 32.0 °F 93% 29.64 in 10.0 mi Calm Calm - N/A   Overcast
6:23 PM 32.0 °F - 32.0 °F 100% 29.64 in 10.0 mi Calm Calm - N/A   Overcast
6:25 PM 32.0 °F - 32.0 °F 100% 29.64 in 10.0 mi Calm Calm - N/A   Overcast
6:42 PM 32.0 °F - 32.0 °F 100% 29.64 in 9.0 mi Calm Calm - N/A   Overcast
6:55 PM 32.4 °F - 32.4 °F 100% 29.65 in 8.0 mi Calm Calm - 0.00 in   Overcast
6:57 PM 32.0 °F - 32.0 °F 100% 29.65 in 8.0 mi Calm Calm - N/A   Overcast
6:59 PM 32.0 °F - 32.0 °F 100% 29.65 in 8.0 mi Calm Calm - N/A   Overcast
7:02 PM 32.0 °F - 32.0 °F 100% 29.65 in 8.0 mi Calm Calm - N/A   Overcast
7:03 PM 32.0 °F - 32.0 °F 100% 29.65 in 8.0 mi Calm Calm - N/A   Overcast
7:07 PM 32.0 °F - 32.0 °F 100% 29.65 in 8.0 mi Calm Calm - N/A   Overcast
7:14 PM 32.0 °F - 32.0 °F 100% 29.65 in 8.0 mi Calm Calm - N/A   Overcast
7:26 PM 32.0 °F - 32.0 °F 100% 29.65 in 9.0 mi Calm Calm - N/A   Overcast
7:34 PM 32.0 °F - 32.0 °F 100% 29.65 in 9.0 mi Calm Calm - N/A   Overcast
7:43 PM 32.0 °F - 32.0 °F 100% 29.65 in 9.0 mi Calm Calm - N/A   Overcast
7:50 PM 32.0 °F - 32.0 °F 100% 29.65 in 9.0 mi Calm Calm - N/A   Overcast
7:52 PM 32.0 °F - 32.0 °F 100% 29.65 in 9.0 mi Calm Calm - N/A   Overcast
7:55 PM 32.4 °F - 32.4 °F 100% 29.65 in 9.0 mi Calm Calm - N/A   Overcast
7:58 PM 32.0 °F - 32.0 °F 100% 29.65 in 9.0 mi Calm Calm - N/A   Overcast
8:04 PM 32.0 °F - 32.0 °F 100% 29.65 in 9.0 mi Calm Calm - N/A   Overcast
8:07 PM 32.0 °F - 32.0 °F 100% 29.65 in 9.0 mi Calm Calm - N/A   Overcast
8:15 PM 32.0 °F - 32.0 °F 100% 29.65 in 8.0 mi Calm Calm - N/A   Overcast
8:19 PM 32.0 °F - 32.0 °F 100% 29.65 in 8.0 mi Calm Calm - N/A   Overcast
8:21 PM 32.0 °F - 32.0 °F 100% 29.65 in 8.0 mi Calm Calm - N/A   Overcast
8:23 PM 32.0 °F - 32.0 °F 100% 29.65 in 8.0 mi Calm Calm - N/A   Overcast
8:24 PM 32.0 °F - 32.0 °F 100% 29.65 in 7.0 mi Calm Calm - N/A Snow Light Snow
8:28 PM 32.0 °F - 32.0 °F 100% 29.65 in 8.0 mi Calm Calm - N/A Snow Light Snow
8:34 PM 32.0 °F - 32.0 °F 100% 29.65 in 8.0 mi Calm Calm - N/A   Overcast
8:36 PM 32.0 °F - 32.0 °F 100% 29.65 in 8.0 mi Calm Calm - N/A   Overcast
8:45 PM 32.0 °F - 32.0 °F 100% 29.66 in 7.0 mi Calm Calm - N/A   Overcast
8:55 PM 32.2 °F 28.9 °F 32.2 °F 100% 29.66 in 6.0 mi WNW 3.5 mph - 0.00 in   Overcast
9:01 PM 32.0 °F 28.7 °F 32.0 °F 100% 29.66 in 6.0 mi NW 3.5 mph - N/A   Overcast
9:49 PM 32.0 °F - 32.0 °F 100% 29.66 in 2.5 mi Calm Calm - N/A   Overcast
9:52 PM 32.0 °F 28.7 °F 32.0 °F 100% 29.66 in 2.0 mi NNW 3.5 mph - N/A   Overcast
9:55 PM 31.8 °F 28.5 °F 31.8 °F 100% 29.66 in 2.0 mi NNW 3.5 mph - N/A   Overcast
9:57 PM 32.0 °F - 32.0 °F 100% 29.67 in 1.8 mi Calm Calm - N/A   Overcast
10:00 PM 32.0 °F 28.7 °F 32.0 °F 100% 29.67 in 2.0 mi NNW 3.5 mph - N/A   Overcast
10:04 PM 32.0 °F - 32.0 °F 100% 29.67 in 2.5 mi Calm Calm - N/A   Overcast
10:06 PM 32.0 °F 28.7 °F 32.0 °F 100% 29.67 in 3.0 mi NW 3.5 mph - N/A   Overcast
10:07 PM 32.0 °F 28.7 °F 32.0 °F 100% 29.67 in 3.0 mi Variable 3.5 mph - N/A   Overcast
10:31 PM 32.0 °F 27.5 °F 32.0 °F 100% 29.67 in 2.5 mi NNW 4.6 mph - N/A   Overcast
10:34 PM 32.0 °F 28.7 °F 32.0 °F 100% 29.67 in 2.0 mi NNW 3.5 mph - N/A   Overcast
10:35 PM 32.0 °F 28.7 °F 32.0 °F 100% 29.67 in 2.0 mi NW 3.5 mph - N/A   Overcast
10:40 PM 32.0 °F 28.7 °F 32.0 °F 100% 29.67 in 1.8 mi NW 3.5 mph - N/A   Overcast
10:44 PM 32.0 °F 28.7 °F 32.0 °F 100% 29.67 in 1.8 mi NW 3.5 mph - N/A   Overcast
10:45 PM 32.0 °F 27.5 °F 32.0 °F 100% 29.67 in 2.0 mi NW 4.6 mph - N/A   Overcast
10:53 PM 32.0 °F - 32.0 °F 100% 29.67 in 2.5 mi Calm Calm - N/A Snow Light Snow
10:55 PM 31.6 °F 28.3 °F 31.6 °F 100% 29.67 in 2.5 mi NNW 3.5 mph - 0.00 in Snow Light Snow
10:59 PM 32.0 °F 28.7 °F 32.0 °F 100% 29.67 in 3.0 mi NNW 3.5 mph - N/A Snow Light Snow
11:04 PM 32.0 °F 28.7 °F 32.0 °F 100% 29.67 in 4.0 mi NNW 3.5 mph - N/A Snow Light Snow
11:54 PM 32.0 °F 28.7 °F 32.0 °F 100% 29.68 in 6.0 mi NW 3.5 mph - N/A   Overcast
11:55 PM 31.3 °F 27.9 °F 31.1 °F 99% 29.68 in 6.0 mi NW 3.5 mph - 0.00 in   Overcast